{"data":{"norad_id":62200,"epoch":"2026-05-25T05:08:01.512096Z","epoch_age_seconds":56725,"freshness":"FRESH","line1":"1 62200U 24229J   26145.21390639  .00016693  00000+0  61413-3 0  9992","line2":"2 62200  43.0009 198.6433 0001226 259.4633 100.6081 15.27613584 82261","mean_motion":15.27613584,"eccentricity":0.0001226,"inclination_deg":43.0009,"raan_deg":198.6433,"arg_perigee_deg":259.4633,"mean_anomaly_deg":100.6081,"bstar":0.00061413,"rev_number":8226,"period_min":94.264676295259,"perigee_km":482.10736621761,"apogee_km":483.78970439086,"semimajor_km":6861.0855353042,"source":"CELESTRAK","updated_at":"2026-05-25T13:38:19.607490Z"}}